Regional Weather Roundup
Issued by NWS

Home | Current Version | Previous Version | Text Only | Print | Product List | Glossary Off
Versions: 1 2 3 4 5 6 7 8 9 10 11 12 13 14 15 16 17 18 19 20 21 22 23 24 25 26 27 28 29 30 31 32 33 34 35 36 37 38 39 40 41 42 43 44 45 46 47 48 49 50

000
ASUS43 KLOT 220600
RWRIL

ILLINOIS REGIONAL WEATHER ROUNDUP
NATIONAL WEATHER SERVICE CHICAGO/ROMEOVILLE IL
1200 AM CST MON DEC 22 2014

NOTE: "FAIR" INDICATES FEW OR NO CLOUDS BELOW 12,000 FEET WITH NO
SIGNIFICANT WEATHER AND/OR OBSTRUCTIONS TO VISIBILITY.

* THESE STATIONS ARE NOT UNDER NWS QUALITY CONTROL. THEY ALSO MAY NOT
  REPORT WEATHER SUCH AS PRECIPITATION OR FOG.

ILZ001-002-007-009-015-016-024-220700-
NORTHWEST ILLINOIS

CITY           SKY/WX    TMP DP  RH WIND       PRES   REMARKS
MOLINE         CLOUDY    36  31  82 SE15      29.91F WCI  27
6HR MIN TEMP:  36; 6HR MAX TEMP:  37; 6HR PCP: TRACE;

STERLING*      CLOUDY    36  28  75 SE9       29.94F WCI  29
$$

ILZ003-004-008-010-011-017-018-220700-
NORTH CENTRAL ILLINOIS

CITY           SKY/WX    TMP DP  RH WIND       PRES   REMARKS
ROCKFORD       CLOUDY    35  29  78 SE14      29.98F WCI  26
6HR MIN TEMP:  35; 6HR MAX TEMP:  36;

$$

ILZ005-006-012>014-019>023-220700-
NORTHEAST ILLINOIS

CITY           SKY/WX    TMP DP  RH WIND       PRES   REMARKS
CHICAGO-OHARE  MOCLDY    31  27  85 SE10      30.01F WCI  22
6HR MIN TEMP:  31; 6HR MAX TEMP:  36;

CHICAGO-MIDWAY MOCLDY    34  28  79 S10       30.02F WCI  26
6HR MIN TEMP:  34; 6HR MAX TEMP:  38;

AURORA         MOCLDY    33  27  78 SE12      29.99F HAZE    WCI  24
6HR MIN TEMP:  33; 6HR MAX TEMP:  37;

WAUKEGAN       MOCLDY    33  27  78 SE8       30.01F WCI  26
6HR MIN TEMP:  33; 6HR MAX TEMP:  35;

DUPAGE AIRPORT MOCLDY    32  27  81 SE10      29.99F WCI  24
6HR MIN TEMP:  32; 6HR MAX TEMP:  36;

WHEELING       MOCLDY    32  27  81 S9        30.03F WCI  24
6HR MIN TEMP:  32; 6HR MAX TEMP:  36;

NORTHERLY ISL    N/A     33  27  79 S10         N/A  WCI  25
$$

LMZ740>746-220700-
SOUTHERN LAKE MICHIGAN

STATION/POSITION SKY/WX   TEMP    WIND        PRES    VSBY  WAVE
                          AIR SEA DIR/SP/G                  HT/PER
                          (F)     (DEG/KT/KT) (MB)    (MI)  (FT/S)
WAUKEGAN HARBOR            34     180/ 15/ 20   N/A
HARRISON CRIB              34     170/ 21/ 24   N/A
BURNHAM HARBOR             33     170/  8/ 14   N/A
CALUMET HARBOR             33     160/  9/ 14 1016.0F
$$

ILZ025>027-034>036-040-047-049-050-058-095>099-220700-
WEST-CENTRAL ILLINOIS

CITY           SKY/WX    TMP DP  RH WIND       PRES   REMARKS
QUINCY         CLOUDY    39  33  79 SE10      29.88F WCI  32
$$

ILZ028>032-037-038-041>044-048-051>054-059>061-220700-
CENTRAL ILLINOIS

CITY           SKY/WX    TMP DP  RH WIND       PRES   REMARKS
DECATUR        CLOUDY    35  30  82 SE14      29.98F WCI  26
PEORIA         CLOUDY    37  30  75 SE7       29.95F WCI  32
6HR MIN TEMP:  37; 6HR MAX TEMP:  38; 6HR PCP: TRACE;

SPRINGFIELD    CLOUDY    40  30  67 SE15G25   29.95F
6HR MIN TEMP:  38; 6HR MAX TEMP:  40;

TAYLORVILLE    NOT AVBL
$$

ILZ033-039-045-046-055>057-062-063-220700-
EAST-CENTRAL ILLINOIS

CITY           SKY/WX    TMP DP  RH WIND       PRES   REMARKS
CHAMPAIGN      CLEAR     29  27  92 SE8       30.00F FOG     WCI  21
MATTOON        MOCLDY    32  27  81 SE7       29.99F WCI  26
$$

ILZ079-100>102-220700-
SOUTHWEST ILLINOIS

CITY           SKY/WX    TMP DP  RH WIND       PRES   REMARKS
CAHOKIA*       CLOUDY    42  32  67 SE9       29.93F
$$

ILZ064>066-069>071-074>076-080>082-084>086-088>090-092>094-220700-
SOUTH-CENTRAL ILLINOIS

CITY           SKY/WX    TMP DP  RH WIND       PRES   REMARKS
CARBONDALE     CLOUDY    39  30  70 SE5       29.96F
6HR MIN TEMP:  34; 6HR MAX TEMP:  39;

MT. VERNON     CLOUDY    37  27  65 E8        29.98F WCI  31
$$

ILZ067-068-072-073-078-083-087-091-220700-
SOUTHEAST ILLINOIS

CITY           SKY/WX    TMP DP  RH WIND       PRES   REMARKS
LAWRENCEVILLE  PTCLDY    30  27  88 E6        30.02F WCI  24
$$

ABBREVIATIONS USED IN REMARKS
   TC - TEMPERATURE IN CELSIUS
  WCI - WIND CHILL INDEX
   HX - HEAT INDEX
  VSB - VISIBILITY
$$



USA.gov is the U.S. government's official web portal to all federal, state and local government web resources and services.